[[{"header":{"parameterUnit":"m.s-1","parameterCategory":1,"la1":30.2992,"la2":30.254,"lo1":-89.0895,"lo2":-89.0443,"dy":0.0025,"dx":0.0025,"nx":19,"ny":19,"refTime":"2026-04-09T09:00:00:Z","depth":0,"parameterNumber":2,"parameterNumberName":"U-component_of_WINDS"},"data":[0,0,0,-7.882,-7.8824,-7.8958,-7.8959,-7.9169,-7.9172,0,0,0,0,0,0,0,0,0,0,0,-7.8804,-7.8806,-7.882,-7.8824,-7.8958,-7.8959,-7.9169,-7.9172,0,0,0,0,0,0,0,0,0,0,0,-7.8803,-7.8805,-7.8808,-7.8825,-7.8958,-7.8959,-7.9168,-7.9053,0,0,0,0,0,0,0,0,0,0,-7.8916,-7.8923,-7.8805,-7.8808,-7.8826,-7.8958,-7.8959,-7.9047,-7.9061,-7.9125,0,-7.9188,0,-7.9184,-7.9188,-7.9189,0,0,0,-7.8807,-7.8912,-7.8928,-7.8809,-7.8827,-7.8958,-7.8893,-7.9054,-7.9069,-7.9143,-7.9191,-7.9198,-7.9187,-7.919,-7.9191,-7.9622,-7.9625,0,0,-7.8799,-7.884,-7.8917,-7.8939,-7.892,-7.8889,-7.8897,-7.9063,-7.9118,-7.9192,-7.9202,-7.9191,-7.9191,-7.9193,-7.9619,-7.9623,0,0,0,-7.879,-7.8836,-7.8846,-7.8931,-7.8952,-7.8893,-7.8903,-7.911,-7.911,-7.9204,-7.9193,-7.9193,-7.9196,-7.9616,-7.9621,-7.98,0,0,0,-7.8784,-7.883,-7.8844,-7.887,-7.895,-7.9033,-7.8947,-7.9099,-7.9116,-7.9192,-7.9193,-7.9198,-7.9613,-7.9619,-7.9788,-7.9878,0,0,0,-7.8787,-7.883,-7.8857,-7.8872,-7.8931,-7.9029,-7.9038,-7.9101,-7.9111,-7.9189,-7.9199,-7.9611,-7.9618,-7.9778,-7.9861,-8.0004,0,0,0,-7.8801,-7.9014,-7.8861,-7.9095,-7.8931,-7.9139,-7.9036,-7.919,-7.9279,-7.9194,-7.9613,-7.962,-7.9775,-7.985,-7.9994,-8.0133,-8.0194,0,0,-7.9092,-7.9051,-7.9185,-7.9052,-7.9298,-7.9116,-7.9389,-7.9431,-7.9401,-7.955,-7.956,-7.9792,-7.986,-8.0002,-8.0526,-8.0575,0,0,0,-7.9291,-7.9388,-7.9445,-7.9532,-7.957,-7.9611,-7.9607,-7.9623,-7.9748,-7.9486,-7.9881,-7.992,-8.0002,-8.0067,-8.0109,-8.0177,-7.9652,-7.9651,-7.965,-7.9761,-7.9712,-7.9932,-7.99,-7.9987,-7.9982,-8.0048,-8.0069,-7.9993,-8.0088,-8.0132,-8.0455,-8.0533,-8.0564,-8.0636,-8.0201,-8.0202,-8.0202,-8.0203,-8.0183,-8.0313,-8.0211,-8.0387,-8.0335,-8.0482,-8.0488,-8.043,-8.056,-8.0418,-8.0487,-8.0336,-8.062,-8.068,-8.0216,-8.0214,-8.0212,-8.0211,-8.021,-8.0485,-8.0539,-8.0556,-8.0679,-8.0779,-8.074,-8.0871,-8.0818,-8.077,-8.0839,-8.088,-8.0877,-8.0868,-8.0862,-8.0864,-8.0865,-8.0866,-8.0866,-8.0867,-8.0792,-8.0805,-8.0922,-8.0983,-8.1033,-8.1093,-8.1093,-8.1141,-8.1181,-8.1132,-8.1132,-8.105,-8.0656,-8.0559,-8.0884,-8.0881,-8.0879,-8.0877,-8.0876,-8.1238,-8.113,-8.131,-8.1361,-8.1429,-8.1533,-8.1465,-8.1569,-8.1601,-8.1668,-8.1571,-8.1288,-8.1241,-8.1208,-8.1127,-8.1579,-8.1579,-8.1579,-8.158,-8.1493,-8.1465,-8.1638,-8.1723,-8.1801,-8.1759,-8.1966,-8.1969,-8.1956,-8.1973,-8.19,-8.1788,-8.1756,-8.1728,-8.1683,-8.1607,-8.2172,-8.2172,-8.2173,-8.1765,-8.1743,-8.1928,-8.1913,-8.1964,-8.2009,-8.2203,-8.2305,-8.2267,-8.2196,-8.1986,-8.1961,-8.178,-8.1723,-8.1646,-8.1578,-8.1436,0,0]},{"header":{"parameterUnit":"m.s-1","parameterCategory":1,"la1":30.2992,"la2":30.254,"lo1":-89.0895,"lo2":-89.0443,"dy":0.0025,"dx":0.0025,"nx":19,"ny":19,"refTime":"2026-04-09T09:00:00:Z","depth":0,"parameterNumber":3,"parameterNumberName":"V-component_of_WINDS"},"data":[0,0,0,0.5567,0.5566,0.5524,0.5524,0.5451,0.5451,0,0,0,0,0,0,0,0,0,0,0,0.5571,0.557,0.5567,0.5566,0.5524,0.5524,0.5451,0.5451,0,0,0,0,0,0,0,0,0,0,0,0.5571,0.557,0.5569,0.5566,0.5524,0.5524,0.5452,0.5489,0,0,0,0,0,0,0,0,0,0,0.5534,0.5528,0.557,0.5569,0.5565,0.5524,0.5524,0.5492,0.5487,0.5463,0,0.5442,0,0.5445,0.5445,0.5444,0,0,0,0.5572,0.5532,0.5529,0.5569,0.5565,0.5524,0.5544,0.5489,0.5484,0.5457,0.5441,0.5439,0.5444,0.5444,0.5444,0.5293,0.5292,0,0,0.5574,0.5557,0.5533,0.5526,0.5533,0.5546,0.5543,0.5486,0.5466,0.5441,0.5437,0.5443,0.5444,0.5443,0.5294,0.5293,0,0,0,0.5577,0.5559,0.5558,0.5528,0.5522,0.5544,0.5541,0.5469,0.547,0.5437,0.5442,0.5443,0.5442,0.5295,0.5293,0.5228,0,0,0,0.5579,0.556,0.5558,0.5548,0.5523,0.5495,0.5525,0.5474,0.5468,0.5442,0.5443,0.5441,0.5296,0.5294,0.5232,0.5198,0,0,0,0.5576,0.556,0.5551,0.5547,0.5528,0.5497,0.5495,0.5473,0.5471,0.5444,0.5441,0.5297,0.5294,0.5236,0.5204,0.5152,0,0,0,0.5568,0.5492,0.555,0.5468,0.5529,0.5458,0.5495,0.5443,0.5413,0.5443,0.5296,0.5294,0.5237,0.5208,0.5156,0.5104,0.5081,0,0,0.5463,0.5479,0.5432,0.5483,0.5397,0.5466,0.5371,0.5357,0.5369,0.5317,0.5314,0.5231,0.5205,0.5153,0.4966,0.4948,0,0,0,0.5393,0.5358,0.534,0.5311,0.5302,0.529,0.5294,0.529,0.5247,0.534,0.52,0.5185,0.5155,0.5131,0.5115,0.509,0.5282,0.5283,0.5283,0.5216,0.5239,0.5162,0.5179,0.5151,0.5158,0.5136,0.5131,0.516,0.5127,0.5109,0.4994,0.4964,0.4953,0.4926,0.5087,0.5086,0.5086,0.5086,0.5061,0.5015,0.5059,0.5,0.5024,0.4973,0.4977,0.5,0.4955,0.5008,0.4983,0.5035,0.4933,0.491,0.5081,0.5082,0.5083,0.5083,0.5083,0.4945,0.4927,0.4926,0.4888,0.4857,0.4877,0.4833,0.4857,0.4878,0.4854,0.4838,0.4839,0.484,0.4845,0.4845,0.4845,0.4844,0.4844,0.4844,0.4824,0.4825,0.4786,0.4772,0.4757,0.4741,0.475,0.4735,0.4725,0.4745,0.4745,0.4775,0.492,0.4954,0.4837,0.4838,0.4839,0.484,0.484,0.4653,0.4696,0.4636,0.4622,0.4608,0.4574,0.4607,0.4576,0.4568,0.4545,0.4584,0.4688,0.4705,0.4717,0.4745,0.4581,0.4581,0.4581,0.4581,0.4552,0.4565,0.451,0.4486,0.4465,0.4489,0.4419,0.4425,0.4438,0.4434,0.4462,0.4503,0.4514,0.4524,0.4541,0.4567,0.4361,0.4361,0.4361,0.4447,0.446,0.4395,0.4412,0.4403,0.4395,0.4329,0.4298,0.4322,0.4352,0.4431,0.444,0.4506,0.4527,0.4554,0.4579,0.4628,0,0]}]]